Location: Broekland
(52.3610°N, 6.2005°E)
Time: 09:55:47
(UTC+00:00)

CZ-4 R/B - Pass Details

Date: 19 May 2025
Orbit: 499 x 550 km, 97.6° (Epoch: 23 June)

Event Time Altitude Azimuth Distance (km) Brightness Sun altitude
Rises 20:26:18 0° 213° (SSW) 2,718 4.7 -7.2°
Reaches altitude 10° 20:29:21 10° 240° (WSW) 1,827 4.1 -7.5°
Maximum altitude 20:31:27 14° 272° (W) 1,593 4.3 -7.8°
Drops below altitude 10° 20:33:32 10° 304° (NW) 1,828 5.5 -8.0°
Sets 20:36:36 0° 331° (NNW) 2,719 6.9 -8.3°
